EGTK

Oxford

Airport
ICAO code
EGTK
Summary
ICAO Region
EUR
ICAO Territory
Location

Oxford,

Elevation
270 ft
Coordinates
51° 50' 13" N , 1° 19' 12" W
KCC
Metar
EGTK 142050Z 19007KT CAVOK 13/08 Q0998

Description

London Oxford Airport, also known as Oxford Airport or Kidlington Airport, is a privately owned airport located near Kidlington in Cherwell District, Oxfordshire, 6 nm northwest by north of Oxford. It specialises in general and business aviation and is home to Oxford Aviation Academy, formerly Oxford Aviation Training, the largest air training school in Europe.

Climatology

Temperate Marine climate/Oceanic climate (Köppen climate classification Cfb). Moderately cool summer and comparatively warm winter with a temperature range of only 14°C. Prevailing south-westerly winds from the Atlantic Ocean.

Runways

Designator Length Width Surface Rops
11/29 760 28 ASP No/No
3/21 880 47 GRS No/No
9/27 880 45 GRS No/No
1/19 1319 23 ASP No/No

Airport map

Aerial View

SKYbrary Partners:

Safety knowledge contributed by: